Location: Harwich
(41.7160°N, 69.9939°W)
Time: 00:27:35
(UTC+02:00)

AO-73 - Pass Details

Date: 25 September 2024
Orbit: 548 x 615 km, 97.7° (Epoch: 10 October)

Event Time Altitude Azimuth Distance (km) Brightness Sun altitude
Rises 10:22:37 0° 3° (N) 2,763 ? -24.3°
Reaches altitude 10° 10:24:53 10° 355° (N) 1,853 ? -23.9°
Enters shadow 10:26:33 22° 341° (NNW) 1,263 ? -23.6°
